NOAA 16 DEB, 41512

Orbit data source: Space-Track

NOAA 16 DEB, 41512 is space debris in SSO originally from a launch on Thu, 21 Sep 2000 UTC launched from the Air Force Western Test Range (AFWTR). Debris objects in space refer to the collection of defunct objects orbiting the Earth. Examples of debris include non-operational satellites, rocket bodies, and fragments generated from explosions, collisions, or faulty payload assembly.

Loading next visibility...
Identifier
41512, 2000-055ML
Orbit
SSO
Country
Flag of USUS
Related business
Manufacturer
Unknown
Mission
Spacecraft
Bus & Motor
Unknown
Mass
Unknown
Launch date (UTC)
2000-09-21 (26 years ago)
Launch vehicle
Unknown
Launch site
Air Force Western Test Range (AFWTR)
Object type
Payload
Rocket body
Debris
Shape & HBR
Unknown shape, 0.1 m
Radar Cross Section
Medium (>0.1 m² and <1 m²)

Expand to show TLE details & history
Last TLE update: 3 days ago

TLE from 3 days ago
0 NOAA 16 DEB
1 41512U 00055ML  26170.03137255  .00004981  00000-0  11351-2 0  9990
2 41512  98.9575  21.2868 0031592  43.8451 316.5244 14.56031544534617
Epoch: 2026-06-19T00:45Z
TLE epoch observation values (Epoch: 2026-06-19T00:45:10.588Z)
Latitude
-0.00003°
Longitude
102.7265°
Altitude
692.762 km
Speed
7.518 km/s
True Right ascension
01h 25m 08s
True Declination
0° 00' 00"
Sunlit
Object was in daylight at epoch
Visualization orbit readout
Latitude
Unknown
Longitude
Unknown
Altitude
Unknown
Speed
Unknown
Apparent Right ascension
Unknown
Apparent Declination
Unknown
Sunlit
N/A
Visualization observer readout
Local Sidereal Time
03:28:17
Azimuth
Unknown
Elevation
Unknown
Doppler factor
Unknown
Orbital elements
Apogee altitude
725.511 km
Perigee altitude
680.769 km
Semi-major axis
7,081.277 km
Eccentricity
0.00316
Inclination
98.9575°
RAAN
21.2868°
Arg. of periapsis
43.8451°
True anomaly
316.2746°
Mean anomaly
316.5244°
Eccentric anomaly
316.39957°
Mean motion
3.6423 °/min
Orbital period
98.84 mins
BSTAR
0.0011351
Loading maneuver chart data...
Computing Atmospheric mass density...
Loading historical data...
Loading historical data...
Loading historical data...
Loading historical data...
Loading historical data...
Loading historical data...
Loading historical data...

Documentation

Showing up to 5 results
|